Regional Weather Roundup
Issued by NWS State College, PA

Home | Current Version | Previous Version | Text Only | Print | Product List | Glossary Off
Versions: 1 2 3 4 5 6 7 8 9 10 11 12 13 14 15 16 17 18 19 20 21 22 23 24 25 26 27 28 29 30 31 32 33 34 35 36 37 38 39 40 41 42 43 44 45 46 47 48 49 50

571
ASUS41 KCTP 200603
RWRCTP

REGIONAL WEATHER ROUNDUP
NATIONAL WEATHER SERVICE STATE COLLEGE PA
100 AM EST FRI JAN 20 2017

Note: "fair" indicates few or no clouds below 12,000 feet with no
significant weather and/or obstructions to visibility.

* = STATION THAT DOES NOT REPORT PRECIPITATION /E.G. RAIN...SNOW...ETC/
    THUNDER OR FOG.

PAZ002>004-007>009-013>016-020>023-029>032-200700-
WESTERN PENNSYLVANIA

CITY           SKY/WX    TMP DP  RH WIND       PRES   REMARKS
ERIE           CLOUDY    29  27  92 E3        29.90F FOG
MEADVILLE      CLOUDY    32  29  88 VRB3      29.87F
FRANKLIN*        N/A     30  27  86 SE7       29.90F
NEW CASTLE     FAIR      30  29  96 CALM      29.89F
BEAVER COUNTY  NOT AVBL
BUTLER*        PTCLDY    32  30  93 NE6       29.91F
PITTSBURGH INT MOCLDY    33  33 100 E6        29.87F
PITTSBURGH     PTCLDY    35  30  82 NE5       29.87F
INDIANA*       CLEAR     32  32 100 E5        29.92F
LATROBE        PTCLDY    30  30 100 CALM      29.89F FOG
WASHINGTON CO* CLOUDY    27  25  93 CALM      29.86F
$$

PAZ004>006-010>012-017>019-024>028-033>037-041-042-045-046-049>053-200700-
CENTRAL PENNSYLVANIA

CITY           SKY/WX    TMP DP  RH WIND       PRES   REMARKS
BRADFORD       FOG       32  32 100 SE8       29.90F VSB 1/4
DUBOIS         CLOUDY    30  27  88 E9        29.90F FOG
CLEARFIELD     CLOUDY    28  27  96 N9        29.94F
JOHNSTOWN      CLOUDY    34  32  92 S6        29.88F
ALTOONA        CLOUDY    32  31  96 CALM      29.94F FOG
STATE COLLEGE  FOG       30  30  99 CALM      29.96F VSB 1
WILLIAMSPORT   FOG       30  29  96 CALM      30.00S VSB 1/2
SELINSGROVE    CLOUDY    27  26  96 CALM      30.01F
FT INDIANTOWN  CLOUDY    29  29 100 CALM      30.01F
CAPITAL CITY   CLOUDY    32  29  88 CALM      30.01F FOG
HARRISBURG     CLOUDY    32  30  92 CALM      30.00F
YORK           CLOUDY    29  28  96 CALM      30.00S FOG
$$

PAZ038>040-043-044-047-048-054-055-060>062-067>071-200700-
EASTERN PENNSYLVANIA

CITY           SKY/WX    TMP DP  RH WIND       PRES   REMARKS
SCRANTON       CLOUDY    35  32  88 CALM      29.99F
MOUNT POCONO   CLOUDY    31  29  92 CALM      29.96F
ALLENTOWN      CLOUDY    34  30  85 CALM      30.02F
QUAKERTOWN*    CLOUDY    27  27 100 CALM      30.03S
READING        PTCLDY    31  31 100 CALM      30.01F
LANCASTER      PTCLDY    33  32  96 CALM      30.01F
COATESVILLE      N/A    N/A N/A N/A MISG        N/A
POTTSTOWN      PTCLDY    29  28  96 CALM      30.03F FOG
BLUE BELL      CLOUDY    28  28 100 CALM      30.02F
DOYLESTOWN     CLOUDY    31  29  92 CALM      30.02S
WILLOW GROVE   NOT AVBL
NORTH PHILA    CLOUDY    32  30  92 CALM      30.05F
PHILADELPHIA   MOCLDY    35  32  88 CALM      30.04F
$$




USA.gov is the U.S. government's official web portal to all federal, state and local government web resources and services.